Regional Weather Roundup
Issued by NWS

Home | Current Version | Previous Version | Text Only | Print | Product List | Glossary Off
Versions: 1 2 3 4 5 6 7 8 9 10 11 12 13 14 15 16 17 18 19 20 21 22 23 24 25 26 27 28 29 30 31 32 33 34 35 36 37 38 39 40 41 42 43 44 45 46 47 48 49 50

000
ASUS43 KLMK 182210
RWRKY
KENTUCKY REGIONAL WEATHER ROUNDUP
NATIONAL WEATHER SERVICE LOUISVILLE KY
600 PM EDT THU SEP 18 2014

NOTE "FAIR" INDICATES FEW OR NO CLOUDS BELOW 12,000 FEET
WITH NO SIGNIFICANT WEATHER AND/OR OBSTRUCTIONS TO VISIBILITY.

KYZ001>023-026-027-061>063-070>075-182300-
WESTERN AND SOUTH CENTRAL KENTUCKY

CITY           SKY/WX    TMP DP  RH WIND       PRES   REMARKS
PADUCAH        PTSUNNY   78  57  48 NE8       29.97S
HENDERSON      SUNNY     73  52  46 NE9       30.00F
OWENSBORO      SUNNY     75  51  42 E8        30.01S
HOPKINSVILLE   PTSUNNY   75  58  55 NE9       29.97S
BOWLING GREEN  SUNNY     75  56  51 NE8       29.99F
GLASGOW        MOSUNNY   75  55  49 N6        30.00S
$$

KYZ024-025-028>034-038-045-046-053-182300-
NORTH CENTRAL KENTUCKY

CITY           SKY/WX    TMP DP  RH WIND       PRES   REMARKS
LOUISVILLE/SDF MOSUNNY   74  50  42 E9        30.02F
LOUISVILLE/LOU SUNNY     74  50  42 VRB3      30.03S
FORT KNOX      MOSUNNY   72  53  51 NE9       30.02S
$$

KYZ035>037-039>044-047>052-055>060-089>105-182300-
NORTHEAST KENTUCKY

CITY           SKY/WX    TMP DP  RH WIND       PRES   REMARKS
LEXINGTON      SUNNY     73  52  47 NE10      30.04S
COVINGTON      MOSUNNY   71  46  40 E10       30.05F
FRANKFORT      SUNNY     73  49  42 NE6       30.03S
$$

KYZ054-064>069-076>088-106>120-182300-
SOUTHEAST KENTUCKY

CITY           SKY/WX    TMP DP  RH WIND       PRES   REMARKS
JACKSON        SUNNY     70  53  54 CALM      30.05S
LONDON         MOSUNNY   74  53  48 N7        30.03S
SOMERSET       NOT AVBL
MIDDLESBORO    PTSUNNY   73  57  56 N5        30.01S
MONTICELLO     MOCLDY    76  55  47 NE6       30.03S
$$



USA.gov is the U.S. government's official web portal to all federal, state and local government web resources and services.